STARLINK-5226 (54056 NORAD) Tracking and Keplerian Element Data

This shows tracking and keplerian element data for the satellite.

Feedback or suggestion? Click here.




ElementValue
Catalog54056
NameSTARLINK-5226
Epoch Orbit548
Epoch Day325.33334491
Epoch Year2022
RAAN352.6905
Inclination53.2171
Eccentricity0.0001682
Argument of Perigee44.3625
Mean Anonmoly127.2369
Mean Motion15.46279158
Decay Rate-0.01202045
L11 54056U 22136F 22325.33334491 -.01202045 00000+0 -26382-1 0 9995
L22 54056 53.2171 352.6905 0001682 44.3625 127.2369 15.46279158 5487



Live tracking and technical data element details for STARLINK-5226 (NORAD 54056). STARLINK-5226 can be tracked NOW for your location showing map with azimuth and elevation plus other details from your city location.







IsCatalogInMostPopularTable: catalog: 54056, numindb: 1
Update: records affected: 1



GetName: 54056 STARLINK-5226

Hit Count: updated at: Mon, 28 Nov 2022 21:45:47 GMT